Location: Caltech
(34.1382°N, 118.1253°W)
Time: 14:41:09
(UTC-07:00)

SEDSat Delta rocket - Visible Passes

Search period start: 25 April 2018 00:00
Search period end: 05 May 2018 00:00
Orbit: 533 x 1001 km, 31.4° (Epoch: 25 April)

Date Brightness Start Highest point End Pass type
(mag) Time Alt. Az. Time Alt. Az. Time Alt. Az.
25 Apr 6.3 02:19:17 13° E 02:19:17 13° E 02:19:51 10° E visible
25 Apr 3.8 03:59:26 57° SSW 03:59:58 59° S 04:06:31 10° ESE visible
25 Apr 4.9 05:40:38 10° W 05:46:15 31° SSW 05:52:06 10° SE visible
26 Apr 4.7 03:21:28 39° SE 03:21:28 39° SE 03:25:39 10° ESE visible
26 Apr 4.6 05:01:37 18° WSW 05:05:31 34° SSW 05:11:30 10° SE visible
27 Apr 6.0 02:43:39 15° ESE 02:43:39 15° ESE 02:44:45 10° ESE visible
27 Apr 4.3 04:23:48 35° SW 04:24:47 38° SSW 04:30:48 10° SE visible
28 Apr 4.8 03:46:11 31° SSE 03:46:11 31° SSE 03:50:04 10° SE visible
28 Apr 5.4 05:26:22 10° WSW 05:30:06 17° SSW 05:34:06 10° S visible
29 Apr 6.1 03:08:45 12° SE 03:08:45 12° SE 03:09:16 10° SE visible
29 Apr 5.2 04:48:56 19° SW 04:49:26 19° SSW 04:53:46 10° SSE visible
29 Apr 5.0 21:02:19 10° SSW 21:02:59 12° S 21:02:59 12° S visible
30 Apr 5.6 04:11:40 15° S 04:11:40 15° S 04:13:20 10° SSE visible
30 Apr 4.7 20:22:35 10° S 20:24:39 13° SSE 20:25:36 13° SE visible
01 May 4.1 21:25:53 10° SW 21:28:16 27° SSW 21:28:16 27° SSW visible
02 May 3.7 20:45:41 10° SW 20:49:16 31° SSE 20:50:34 25° SE visible
03 May 3.9 20:05:29 10° SW 20:08:53 26° SSE 20:12:23 10° ESE visible
03 May 4.1 21:50:32 10° WSW 21:52:54 32° WSW 21:52:54 32° WSW visible
04 May 2.9 21:10:11 10° WSW 21:14:08 53° S 21:14:56 44° SE visible
